Other Public Products
Issued by NWS Grand Forks, ND

Home | Current Version | Previous Version | Text Only | Print | Product List | Glossary On
Versions: 1 2 3 4 5 6 7 8 9 10 11 12 13 14 15 16 17 18 19 20 21 22 23 24 25 26 27 28 29 30 31 32 33 34 35 36 37 38 39 40 41 42 43 44 45 46 47 48 49 50
010
FPUS83 KFGF 090631
OPUFGF
PRAIRIE TO PINES WEATHER ROUNDUP
NATIONAL WEATHER SERVICE EASTERN NORTH DAKOTA/GRAND FORKS ND
1200 AM CST TUE FEB 09 2016

 **SATELLITE DATA USED TO AUGMENT SKY COVER AT AUTOMATED STATIONS**
 *****  WEATHER ACROSS EASTERN NORTH DAKOTA  *****

CITY           SKY/WX    TMP DP  RH WIND       PRES   REMARKS
GRAND FORKS    CLEAR      6   0  76 NW10      30.25F WCI  -9
6HR MIN TEMP:   6; 6HR MAX TEMP:  11;

GRAND FORKS AF CLEAR      5  -1  75 N8        30.25F WCI  -8
GRAND CITY NWS NOT AVBL
BUXTON           N/A      6   2  84 NW13        N/A  WCI -10
DEVILS LAKE    CLOUDY     7   3  84 NW5       30.25S WCI  -2
6HR MIN TEMP:   6; 6HR MAX TEMP:  14;

FARGO          CLEAR      8   1  73 N17       30.22F WCI -10
6HR MIN TEMP:   8; 6HR MAX TEMP:  12; 6HR PCP: TRACE;

WAHPETON ARPT  CLEAR      9   1  72 N17G30    30.20F WCI -10
$$

 *****  WEATHER ACROSS CENTRAL AND WESTERN NORTH DAKOTA  *****

CITY           SKY/WX    TMP DP  RH WIND       PRES   REMARKS
JAMESTOWN      CLEAR     10   6  84 N8        30.22F WCI  -2
6HR MIN TEMP:  10; 6HR MAX TEMP:  20;

BISMARCK       CLOUDY    25  14  63 N8        30.27F WCI  16
6HR MIN TEMP:  24; 6HR MAX TEMP:  34;

MINOT          CLOUDY    25  13  60 NW6       30.26F WCI  18
6HR MIN TEMP:  20; 6HR MAX TEMP:  26;

MINOT AFB      CLOUDY    23  18  81 CALM      30.26S
6HR MIN TEMP:  14; 6HR MAX TEMP:  25;

GARRISON         N/A     23  16  74 VRB5      30.25F WCI  17
6HR MIN TEMP:  16; 6HR MAX TEMP:  29;

WILLISTON      CLOUDY    30  22  72 CALM      30.26S
6HR MIN TEMP:  29; 6HR MAX TEMP:  34;

DICKINSON      CLOUDY    28  17  63 W5        30.21F WCI  23
6HR MIN TEMP:  27; 6HR MAX TEMP:  32;

HETTINGER      CLOUDY    30  14  51 N6        30.25S WCI  24
6HR MIN TEMP:  29; 6HR MAX TEMP:  33;

$$

 *****  OTHER OBSERVATIONS NORTHEAST NORTH DAKOTA  *****

CITY           SKY/WX    TMP DP  RH WIND       PRES   REMARKS
WALHALLA       FAIR       7   5  92 NW7       30.27S WCI  -5
LANGDON        MOCLDY    -2  -6  84 NW7       30.22R WCI -16
CAVALIER       FAIR       7   1  78 NW8       30.26S WCI  -6
GRAFTON        FAIR       5   0  78 NW8       30.28S WCI  -8
CANDO          CLOUDY     7   3  85 NW9       30.27R WCI  -7
FORT TOTTEN      N/A      7   4  87 CALM      29.95S
ROLLA          CLOUDY    14   7  73 NW10      30.23R WCI   1
RUGBY          CLOUDY    14   9  79 W8        30.24F WCI   3
 ***** THE ABOVE OBSERVATIONS ARE NON NWS ARE NOT QUALITY
        CONTROLLED AND MAY MIS-REPORT RAIN FOR SNOW...
$$

 *****  OTHER OBSERVATIONS SOUTHEAST NORTH DAKOTA *****

CITY           SKY/WX    TMP DP  RH WIND       PRES   REMARKS
COOPERSTOWN    NOT AVBL
VALLEY CITY    FAIR       7   5  92 N10       30.24S WCI  -8
OAKES          FAIR      10   7  85 N13       30.22S WCI  -5
GWINNER          N/A     10   7  85 N12       30.22F WCI  -4
SHEYENNE NWR     N/A      7   1  76 N8        29.95S WCI  -6
BUFFALO          N/A      6   0  77 N12         N/A  WCI -10
WYNDMERE         N/A      9   3  78 N18         N/A  WCI -10
 ***** THE ABOVE OBSERVATIONS ARE NON NWS ARE NOT QUALITY
       CONTROLLED AND MAY MIS-REPORT RAIN FOR SNOW...
$$

  *****  WEATHER ACROSS NORTHERN MINNESOTA  *****

CITY           SKY/WX    TMP DP  RH WIND       PRES   REMARKS
FLAG ISLAND    CLOUDY     0  -4  85 NW9       30.14F WCI -16
WARROAD        CLOUDY     1  -2  85 NW8       30.17S WCI -12
ROSEAU         CLOUDY     1  -6  71 N10       30.18S WCI -14
HALLOCK        CLOUDY     1  -2  85 NW7       30.24S WCI -11
THF RVR FALLS  NOT AVBL
HALSTAD          N/A      6   3  87 N20         N/A  WCI -14
FOSSTON        PTCLDY     0  -4  85 N13       30.16S WCI -18
BAUDETTE       CLOUDY     2  -3  80 NW12      30.11S WCI -15
6HR MIN TEMP:   2; 6HR MAX TEMP:   6; 6HR PCP: TRACE;

WASKISH        CLOUDY     5   0  78 NW9G16    30.11F WCI  -9
CROOKSTON      CLEAR      3   0  85 N12       30.24F WCI -13
$$
  *****  WEATHER ACROSS CENTRAL AND WEST MINNESOTA  *****

CITY           SKY/WX    TMP DP  RH WIND       PRES   REMARKS
BEMIDJI        FLURRIES   3  -2  79 N13       30.09F WCI -14
PARK RAPIDS    CLOUDY     6  -2  69 N14       30.07R WCI -11
6HR MIN TEMP:   6; 6HR MAX TEMP:  10; 6HR PCP: TRACE;

WADENA         CLOUDY     5   0  78 N17G25    30.07F WCI -14
DETROIT LAKES  CLEAR      5   1  85 N17G25    30.13F WCI -14
MOORHEAD       CLEAR      7   1  78 N18       30.22S WCI -12
FERGUS FALLS   CLOUDY     5   0  78 N15G26    30.19S WCI -13
ELBOW LAKE     MOCLDY     6   1  80 NW20      30.13F WCI -14
MORRIS MN      MOCLDY     9   3  78 N23G30    30.12F HAZE    WCI -12
STAPLES        MOCLDY     5  -2  72 N16G26    30.07R WCI -14
WHEATON        PTCLDY     9   3  78 NW20G28   30.21S WCI -11
$$
  *****  WEATHER ELSEWHERE ACROSS MINNESOTA  *****

CITY           SKY/WX    TMP DP  RH WIND       PRES   REMARKS
DULUTH         CLOUDY     3  -4  72 NW16G24   29.93S WCI -16
6HR MIN TEMP:   3; 6HR MAX TEMP:   7; 6HR PCP: TRACE;

INTRNTL FALLS  CLOUDY     1  -5  75 N14       30.07S WCI -17
6HR MIN TEMP:   1; 6HR MAX TEMP:   4; 6HR PCP: TRACE;

ELY            CLOUDY     1  -2  85 NW9G16    29.94S WCI -14
CLOQUET        FLURRIES   3  -2  78 NW15G22   29.96S WCI -15
BRAINERD       PTCLDY     6  -2  69 N18G26    30.04S WCI -13
6HR MIN TEMP:   6; 6HR MAX TEMP:  10; 6HR PCP: TRACE;

HIBBING        CLOUDY     0  -5  79 NW15G25   29.99R WCI -19
6HR MIN TEMP:   0; 6HR MAX TEMP:   5; 6HR PCP: TRACE;

ALEXANDRIA     PTCLDY     6  -1  73 N14G26    30.07S WCI -11
6HR MIN TEMP:   7; 6HR MAX TEMP:  11;

SAINT CLOUD    CLOUDY    10   1  67 N14G29    30.02R WCI  -6
6HR MIN TEMP:  10; 6HR MAX TEMP:  14;

MINNEAPOLIS    FLURRIES  12   4  70 N14G24    29.99S WCI  -3
6HR MIN TEMP:  12; 6HR MAX TEMP:  15; 6HR PCP: TRACE;

$$

  *****  WEATHER ACROSS SOUTH DAKOTA  *****

CITY           SKY/WX    TMP DP  RH WIND       PRES   REMARKS
SIOUX FALLS    PTCLDY    14   6  70 N26G40    30.12R WCI  -6
6HR MIN TEMP:  14; 6HR MAX TEMP:  24;

BROOKINGS      FLURRIES   9   4  80 N22G29    30.11S WCI -11
WATERTOWN      CLOUDY     8   2  76 N21       30.13S WCI -12
6HR MIN TEMP:   9; 6HR MAX TEMP:  18;

HURON          CLEAR     17  11  77 N18G26    30.21R WCI   1
6HR MIN TEMP:  17; 6HR MAX TEMP:  29;

SISSETON         N/A      7   3  84 N17       30.19S WCI -12
ABERDEEN       CLEAR     16   9  74 N13       30.24R WCI   2
6HR MIN TEMP:  16; 6HR MAX TEMP:  26;

MITCHELL       CLEAR     20  13  74 N16       30.22R WCI   6
PIERRE         PTCLDY    25  18  74 N13       30.24R WCI  14
6HR MIN TEMP:  23; 6HR MAX TEMP:  35;

MOBRIDGE       CLEAR     23  15  71 N9        30.21S WCI  13
RAPID CITY     CLOUDY    32  19  58 N3        30.22F
6HR MIN TEMP:  30; 6HR MAX TEMP:  40;

$$

  *****  SOME WEATHER IN NEARBY STATES *****

CITY           SKY/WX    TMP DP  RH WIND       PRES   REMARKS
GLASGOW MT     CLEAR     29  19  66 N6        30.23R WCI  23
6HR MIN TEMP:  27; 6HR MAX TEMP:  33;

GREAT FALLS MT CLEAR     38  29  70 SW15      30.33R
6HR MIN TEMP:  37; 6HR MAX TEMP:  54;

CHEYENNE WY    CLEAR     37  20  50 NW21G31   30.29F
6HR MIN TEMP:  36; 6HR MAX TEMP:  40;

SCOTTSBLUFF NE CLEAR     31  26  82 NW9       30.26S WCI  23
6HR MIN TEMP:  30; 6HR MAX TEMP:  40;

OMAHA NE       CLEAR     23  15  71 N15       30.08F WCI  10
6HR MIN TEMP:  23; 6HR MAX TEMP:  27;

DES MOINES IA  FLURRIES  15   6  67 N16G23    30.01S WCI  -1
6HR MIN TEMP:  15; 6HR MAX TEMP:  20; 6HR PCP: TRACE;

DAVENPORT IA   LGT SNOW  16  10  77 NW17      29.85F WCI   0
6HR MIN TEMP:  16; 6HR MAX TEMP:  18; 6HR PCP: TRACE;

CHICAGO IL     FLURRIES  21  16  81 NW13      29.73S WCI   9
6HR MIN TEMP:  21; 6HR MAX TEMP:  27; 6HR PCP:  0.02;

EAU CLAIRE WI  PTCLDY     9   0  67 NW10      29.91R WCI  -5
6HR MIN TEMP:   9; 6HR MAX TEMP:  13; 6HR PCP: TRACE;

LA CROSSE WI   CLOUDY    13   5  70 N16       29.91R WCI  -3
6HR MIN TEMP:  13; 6HR MAX TEMP:  15; 6HR PCP:  0.04;

$$

  *****  SOME NATIONAL WEATHER *****

CITY           SKY/WX    TMP DP  RH WIND       PRES   REMARKS
LA GUARDIA NY  CLOUDY    28  21  74 E12       29.74F WCI  18
6HR MIN TEMP:  28; 6HR MAX TEMP:  31; 6HR PCP: TRACE;

RALEIGH NC     FOG       37  36  93 CALM      29.62F VSB 1/4      C1F1C2F2C3F3C4F4C5F5C6F6C7F7C8F8C9F9CaFaCbFbCcFcCdFdCe!



USA.gov is the U.S. government's official web portal to all federal, state and local government web resources and services.